Tracking 28779 objects as of 15-Apr-2024
HD Live streaming from Space Station
objects crossing your sky now

FENGYUN 1C DEB

Track FENGYUN 1C DEB now!
10-day predictions


NORAD ID: 31030
Int'l Code: 1999-025BDY
Perigee: 814.5 km
Apogee: 856.0 km
Inclination: 98.8 °
Period: 101.5 minutes
Semi major axis: 7206 km
RCS: 0.0064 m2 (small)
Launch date: May 10, 1999
Source: People's Republic of China (PRC)
Launch site: Taiyaun Space Center, China (TSC)

Note: This is SATELLITE DEBRIS
Your satellite tracking list
Your tracking list is empty




NASA's NSSDC Master Catalog

Two Line Element Set (TLE):
1 31030U 99025BDY 24106.64201630  .00003034  00000-0  14635-2 0  9998
2 31030  98.8202 164.6121 0028825  32.7342 119.1287 14.19178229880925
Source of the keplerian elements: AFSPC